This is the latest recevied weather packets stored in our database for station/object NI4CE-14. If no packets are shown the sender has not sent any weather packets the latest 10 day(s).
| Time | Temp. | Humidity | Pressure | Rain* | Wind** | Luminosity | Snow |
|---|---|---|---|---|---|---|---|
| 1777557506 | 29.44° C | 100% | 1010.2 hPa | 0 mm | - | - | - |
| 1777557206 | 30° C | 100% | 1010 hPa | 0 mm | - | - | - |
| 1777556906 | 29.44° C | 100% | 1010 hPa | 0 mm | - | - | - |
| 1777556808 | 29.44° C | 100% | 1010.1 hPa | 0 mm | - | - | - |
| 1777556606 | 29.44° C | 100% | 1010.1 hPa | 0 mm | - | - | - |
| 1777556306 | 29.44° C | 100% | 1010.3 hPa | 0 mm | - | - | - |
| 1777556006 | 29.44° C | 100% | 1010.2 hPa | 0 mm | - | - | - |
| 1777555706 | 28.89° C | 100% | 1010.1 hPa | 0 mm | - | - | - |
| 1777555637 | 28.89° C | 100% | 1010.2 hPa | 0 mm | - | - | - |
| 1777555406 | 28.89° C | 100% | 1010.2 hPa | 0 mm | - | - | - |
| 1777555106 | 28.89° C | 100% | 1010.3 hPa | 0 mm | - | - | - |
| 1777554943 | 28.33° C | 100% | 1010.5 hPa | 0 mm | - | - | - |
| 1777554811 | 28.33° C | 100% | 1010.5 hPa | 0 mm | - | - | - |
| 1777554810 | 28.33° C | 100% | 1010.5 hPa | 0 mm | - | - | - |
| 1777554806 | 28.33° C | 100% | 1010.5 hPa | 0 mm | - | - | - |
| 1777554506 | 28.89° C | 100% | 1010.6 hPa | 0 mm | - | - | - |
| 1777554411 | 28.89° C | 100% | 1010.8 hPa | 0 mm | - | - | - |
| 1777554212 | 28.89° C | 100% | 1010.8 hPa | 0 mm | - | - | - |
| 1777554209 | 28.89° C | 100% | 1010.8 hPa | 0 mm | - | - | - |
| 1777554206 | 28.89° C | 100% | 1010.8 hPa | 0 mm | - | - | - |
| 1777554079 | 28.89° C | 100% | 1011 hPa | 0 mm | - | - | - |
| 1777553912 | 28.89° C | 100% | 1011 hPa | 0 mm | - | - | - |
| 1777553909 | 28.89° C | 100% | 1011 hPa | 0 mm | - | - | - |
| 1777553908 | 28.89° C | 100% | 1011 hPa | 0 mm | - | - | - |
| 1777553906 | 28.89° C | 100% | 1011 hPa | 0 mm | - | - | - |
* Rain latest hour (hover to see other rain measurements)
** Current wind speed in m/s (hover to see current wind gust speed)